Time,TemperatureF,DewpointF,PressureIn,WindDirection,WindDirectionDegrees,WindSpeedMPH,WindSpeedGustMPH,Humidity,HourlyPrecipIn,Conditions,Clouds,dailyrainin,SoftwareType,DateUTC
2013-01-06 00:00:00,0.8,-2.1,29.44,SW,226,0.0,0.0,87,0.00,,,0.00,LWC V2.00 B2112,2013-01-06 09:00:00,
2013-01-06 00:05:00,0.7,-2.2,29.44,SW,226,0.0,0.0,87,0.00,,,0.00,LWC V2.00 B2112,2013-01-06 09:05:00,
2013-01-06 00:10:00,0.7,-2.2,29.44,SW,225,0.0,0.0,87,0.00,,,0.00,LWC V2.00 B2112,2013-01-06 09:10:00,
2013-01-06 00:15:00,0.6,-2.3,29.44,SW,226,0.0,0.0,87,0.00,,,0.00,LWC V2.00 B2112,2013-01-06 09:15:00,
2013-01-06 00:20:00,0.6,-2.3,29.43,SW,225,0.0,0.0,87,0.00,,,0.00,LWC V2.00 B2112,2013-01-06 09:20:00,
2013-01-06 00:25:00,0.5,-2.4,29.44,SW,225,0.0,0.0,87,0.00,,,0.00,LWC V2.00 B2112,2013-01-06 09:25:00,
2013-01-06 00:30:00,0.4,-2.5,29.44,SW,226,0.0,0.0,87,0.00,,,0.00,LWC V2.00 B2112,2013-01-06 09:30:00,
2013-01-06 00:35:00,0.4,-2.5,29.44,SW,226,0.0,0.0,87,0.00,,,0.00,LWC V2.00 B2112,2013-01-06 09:35:00,
2013-01-06 00:40:00,0.4,-2.5,29.44,SW,226,0.0,0.0,87,0.00,,,0.00,LWC V2.00 B2112,2013-01-06 09:40:00,
2013-01-06 00:45:00,0.5,-2.4,29.44,SW,225,0.0,0.0,87,0.00,,,0.00,LWC V2.00 B2112,2013-01-06 09:45:00,
2013-01-06 00:50:00,0.6,-2.3,29.44,SW,226,0.0,0.0,87,0.00,,,0.00,LWC V2.00 B2112,2013-01-06 09:50:00,
2013-01-06 00:55:00,0.7,-2.2,29.44,SW,226,0.0,0.0,87,0.00,,,0.00,LWC V2.00 B2112,2013-01-06 09:55:00,
2013-01-06 01:00:00,0.8,-1.9,29.44,SW,226,0.0,0.0,88,0.00,,,0.00,LWC V2.00 B2112,2013-01-06 10:00:00,
2013-01-06 01:05:00,0.8,-1.9,29.44,SW,226,0.0,0.0,88,0.00,,,0.00,LWC V2.00 B2112,2013-01-06 10:05:00,
2013-01-06 01:10:00,0.7,-2.2,29.44,SW,226,0.0,0.0,87,0.00,,,0.00,LWC V2.00 B2112,2013-01-06 10:10:00,
2013-01-06 01:15:00,0.7,-2.2,29.44,SW,226,0.0,0.0,87,0.00,,,0.00,LWC V2.00 B2112,2013-01-06 10:15:00,
2013-01-06 01:20:00,0.6,-2.3,29.44,SW,225,0.0,0.0,87,0.00,,,0.00,LWC V2.00 B2112,2013-01-06 10:20:00,
2013-01-06 01:25:00,0.7,-2.2,29.44,SW,226,0.0,0.0,87,0.00,,,0.00,LWC V2.00 B2112,2013-01-06 10:25:00,
2013-01-06 01:30:00,0.7,-2.2,29.43,SW,226,0.0,0.0,87,0.00,,,0.00,LWC V2.00 B2112,2013-01-06 10:30:00,
2013-01-06 01:35:00,0.8,-1.9,29.43,SW,226,0.0,0.0,88,0.00,,,0.00,LWC V2.00 B2112,2013-01-06 10:35:00,
2013-01-06 01:40:00,0.9,-1.8,29.44,SW,226,0.0,0.0,88,0.00,,,0.00,LWC V2.00 B2112,2013-01-06 10:40:00,
2013-01-06 01:45:00,0.9,-1.8,29.44,SW,226,0.0,0.0,88,0.00,,,0.00,LWC V2.00 B2112,2013-01-06 10:45:00,
2013-01-06 01:50:00,0.8,-1.9,29.44,SW,226,0.0,0.0,88,0.00,,,0.00,LWC V2.00 B2112,2013-01-06 10:50:00,
2013-01-06 01:55:00,0.9,-1.8,29.44,SW,225,0.0,0.0,88,0.00,,,0.00,LWC V2.00 B2112,2013-01-06 10:55:00,
2013-01-06 02:00:00,1.2,-1.5,29.44,SW,226,0.0,0.0,88,0.00,,,0.00,LWC V2.00 B2112,2013-01-06 11:00:00,
2013-01-06 02:05:00,1.4,-1.3,29.43,SW,226,0.0,0.0,88,0.00,,,0.00,LWC V2.00 B2112,2013-01-06 11:05:00,
2013-01-06 02:10:00,1.4,-1.3,29.44,SW,226,0.0,0.0,88,0.00,,,0.00,LWC V2.00 B2112,2013-01-06 11:10:00,
2013-01-06 02:15:00,1.4,-1.3,29.44,SW,225,0.0,0.0,88,0.00,,,0.00,LWC V2.00 B2112,2013-01-06 11:15:00,
2013-01-06 02:20:00,1.8,-0.9,29.44,SW,226,0.0,0.0,88,0.00,,,0.00,LWC V2.00 B2112,2013-01-06 11:20:00,
2013-01-06 02:25:00,1.8,-0.9,29.44,SW,226,0.0,0.0,88,0.00,,,0.00,LWC V2.00 B2112,2013-01-06 11:25:00,
2013-01-06 02:30:00,2.0,-0.7,29.44,SW,225,0.0,0.0,88,0.00,,,0.00,LWC V2.00 B2112,2013-01-06 11:30:00,
2013-01-06 02:35:00,2.1,-0.6,29.44,SW,226,0.0,0.0,88,0.00,,,0.00,LWC V2.00 B2112,2013-01-06 11:35:00,
2013-01-06 02:40:00,2.4,-0.3,29.44,SW,226,0.0,0.0,88,0.00,,,0.00,LWC V2.00 B2112,2013-01-06 11:40:00,
2013-01-06 02:45:00,2.7,0.0,29.44,SW,226,0.0,0.0,88,0.00,,,0.00,LWC V2.00 B2112,2013-01-06 11:45:00,
2013-01-06 02:50:00,3.2,0.5,29.44,SW,225,0.0,0.0,88,0.00,,,0.00,LWC V2.00 B2112,2013-01-06 11:50:00,
2013-01-06 02:55:00,3.5,0.8,29.43,SW,226,0.0,0.0,88,0.00,,,0.00,LWC V2.00 B2112,2013-01-06 11:55:00,
2013-01-06 03:00:00,3.6,0.9,29.43,SW,226,0.0,0.0,88,0.00,,,0.00,LWC V2.00 B2112,2013-01-06 12:00:00,
2013-01-06 03:05:00,3.7,1.0,29.43,SW,225,0.0,0.0,88,0.00,,,0.00,LWC V2.00 B2112,2013-01-06 12:05:00,
2013-01-06 03:10:00,3.8,1.1,29.43,SW,225,0.0,0.0,88,0.00,,,0.00,LWC V2.00 B2112,2013-01-06 12:10:00,
2013-01-06 03:15:00,3.9,1.2,29.43,SW,226,0.0,0.0,88,0.00,,,0.00,LWC V2.00 B2112,2013-01-06 12:15:00,
2013-01-06 03:20:00,3.9,1.2,29.44,SW,226,0.0,0.0,88,0.00,,,0.00,LWC V2.00 B2112,2013-01-06 12:20:00,
2013-01-06 03:25:00,3.9,1.2,29.43,SW,225,0.0,0.0,88,0.00,,,0.00,LWC V2.00 B2112,2013-01-06 12:25:00,
2013-01-06 03:30:00,3.8,1.1,29.43,SW,226,0.0,0.0,88,0.00,,,0.00,LWC V2.00 B2112,2013-01-06 12:30:00,
2013-01-06 03:35:00,3.7,1.0,29.43,SW,226,0.0,0.0,88,0.00,,,0.00,LWC V2.00 B2112,2013-01-06 12:35:00,
2013-01-06 03:40:00,3.6,0.9,29.43,SW,225,0.0,0.0,88,0.00,,,0.00,LWC V2.00 B2112,2013-01-06 12:40:00,
2013-01-06 03:43:00,3.6,0.9,29.43,SW,226,0.0,0.0,88,0.00,,,0.00,LWC V2.00 B2112,2013-01-06 12:43:00,
2013-01-06 03:45:00,3.6,0.9,29.43,SW,226,0.0,0.0,88,0.00,,,0.00,LWC V2.00 B2112,2013-01-06 12:45:00,
2013-01-06 03:50:00,3.5,0.8,29.43,SW,226,0.0,0.0,88,0.00,,,0.00,LWC V2.00 B2112,2013-01-06 12:50:00,
2013-01-06 03:55:00,3.3,0.6,29.44,SW,225,0.0,0.0,88,0.00,,,0.00,LWC V2.00 B2112,2013-01-06 12:55:00,
2013-01-06 04:00:00,3.3,0.6,29.44,SW,225,0.0,0.0,88,0.00,,,0.00,LWC V2.00 B2112,2013-01-06 13:00:00,
2013-01-06 04:05:00,3.3,0.6,29.44,SW,226,0.0,0.0,88,0.00,,,0.00,LWC V2.00 B2112,2013-01-06 13:05:00,
2013-01-06 04:11:00,3.2,0.5,29.44,SW,226,0.0,0.0,88,0.00,,,0.00,LWC V2.00 B2112,2013-01-06 13:11:00,
2013-01-06 04:16:00,3.2,0.5,29.44,SW,226,0.0,0.0,88,0.00,,,0.00,LWC V2.00 B2112,2013-01-06 13:16:00,
2013-01-06 04:21:00,3.2,0.5,29.44,SW,226,0.0,0.0,88,0.00,,,0.00,LWC V2.00 B2112,2013-01-06 13:21:00,
2013-01-06 04:26:00,3.3,0.6,29.44,SW,226,0.0,0.0,88,0.00,,,0.00,LWC V2.00 B2112,2013-01-06 13:26:00,
2013-01-06 04:31:00,3.3,0.6,29.44,SW,225,0.0,0.0,88,0.00,,,0.00,LWC V2.00 B2112,2013-01-06 13:31:00,
2013-01-06 04:36:00,3.3,0.6,29.44,SW,225,0.0,0.0,88,0.00,,,0.00,LWC V2.00 B2112,2013-01-06 13:36:00,
2013-01-06 04:41:00,3.3,0.6,29.44,SW,226,0.0,0.0,88,0.00,,,0.00,LWC V2.00 B2112,2013-01-06 13:41:00,
2013-01-06 04:46:00,3.1,0.4,29.44,SW,226,0.0,0.0,88,0.00,,,0.00,LWC V2.00 B2112,2013-01-06 13:46:00,
2013-01-06 04:51:00,2.9,0.2,29.43,SW,225,0.0,0.0,88,0.00,,,0.00,LWC V2.00 B2112,2013-01-06 13:51:00,
2013-01-06 04:56:00,2.9,0.2,29.44,SW,226,0.0,0.0,88,0.00,,,0.00,LWC V2.00 B2112,2013-01-06 13:56:00,
2013-01-06 05:01:00,3.1,0.4,29.44,SW,226,0.0,0.0,88,0.00,,,0.00,LWC V2.00 B2112,2013-01-06 14:01:00,
2013-01-06 05:06:00,3.1,0.4,29.44,SW,225,0.0,0.0,88,0.00,,,0.00,LWC V2.00 B2112,2013-01-06 14:06:00,
2013-01-06 05:11:00,3.5,0.8,29.44,SW,225,0.0,0.0,88,0.00,,,0.00,LWC V2.00 B2112,2013-01-06 14:11:00,
2013-01-06 05:16:00,3.7,1.0,29.43,SW,226,0.0,0.0,88,0.00,,,0.00,LWC V2.00 B2112,2013-01-06 14:16:00,
2013-01-06 05:21:00,4.0,1.3,29.43,SW,226,0.0,0.0,88,0.00,,,0.00,LWC V2.00 B2112,2013-01-06 14:21:00,
2013-01-06 05:26:00,4.4,1.6,29.44,SW,226,0.0,0.0,88,0.00,,,0.00,LWC V2.00 B2112,2013-01-06 14:26:00,
2013-01-06 05:31:00,5.1,2.3,29.43,SW,226,0.0,0.0,88,0.00,,,0.00,LWC V2.00 B2112,2013-01-06 14:31:00,
2013-01-06 05:36:00,5.5,2.7,29.43,SW,226,0.0,0.0,88,0.00,,,0.00,LWC V2.00 B2112,2013-01-06 14:36:00,
2013-01-06 05:41:00,5.8,3.3,29.43,SW,225,0.0,0.0,89,0.00,,,0.00,LWC V2.00 B2112,2013-01-06 14:41:00,
2013-01-06 05:46:00,6.0,3.5,29.43,SW,225,0.0,0.0,89,0.00,,,0.00,LWC V2.00 B2112,2013-01-06 14:46:00,
2013-01-06 05:51:00,5.9,3.1,29.43,SW,226,0.0,0.0,88,0.00,,,0.00,LWC V2.00 B2112,2013-01-06 14:51:00,
2013-01-06 05:56:00,5.8,3.0,29.44,SW,226,0.0,0.0,88,0.00,,,0.00,LWC V2.00 B2112,2013-01-06 14:56:00,
2013-01-06 06:01:00,5.8,3.0,29.44,SW,225,0.0,0.0,88,0.00,,,0.00,LWC V2.00 B2112,2013-01-06 15:01:00,
2013-01-06 06:06:00,5.9,3.1,29.43,SW,226,0.0,0.0,88,0.00,,,0.00,LWC V2.00 B2112,2013-01-06 15:06:00,
2013-01-06 06:11:00,6.0,3.2,29.44,SW,226,0.0,0.0,88,0.00,,,0.00,LWC V2.00 B2112,2013-01-06 15:11:00,
2013-01-06 06:16:00,5.9,3.1,29.44,SW,225,0.0,0.0,88,0.00,,,0.00,LWC V2.00 B2112,2013-01-06 15:16:00,
2013-01-06 06:21:00,6.0,3.5,29.44,SW,225,0.0,0.0,89,0.00,,,0.00,LWC V2.00 B2112,2013-01-06 15:21:00,
2013-01-06 06:26:00,6.3,3.8,29.44,SW,226,0.0,0.0,89,0.00,,,0.00,LWC V2.00 B2112,2013-01-06 15:26:00,
2013-01-06 06:31:00,6.4,3.6,29.44,SW,226,0.0,0.0,88,0.00,,,0.00,LWC V2.00 B2112,2013-01-06 15:31:00,
2013-01-06 06:36:00,6.4,3.6,29.44,SW,225,0.0,0.0,88,0.00,,,0.00,LWC V2.00 B2112,2013-01-06 15:36:00,
2013-01-06 06:41:00,6.3,3.5,29.44,SW,226,0.0,0.0,88,0.00,,,0.00,LWC V2.00 B2112,2013-01-06 15:41:00,
2013-01-06 06:46:00,6.4,3.6,29.44,SW,226,0.0,0.0,88,0.00,,,0.00,LWC V2.00 B2112,2013-01-06 15:46:00,
2013-01-06 06:51:00,6.4,3.6,29.44,SW,225,0.0,0.0,88,0.00,,,0.00,LWC V2.00 B2112,2013-01-06 15:51:00,
2013-01-06 06:56:00,6.6,3.8,29.44,SW,225,0.0,0.0,88,0.00,,,0.00,LWC V2.00 B2112,2013-01-06 15:56:00,
2013-01-06 07:01:00,6.7,4.2,29.44,SW,226,0.0,0.0,89,0.00,,,0.00,LWC V2.00 B2112,2013-01-06 16:01:00,
2013-01-06 07:06:00,6.8,4.3,29.44,SW,226,0.0,0.0,89,0.00,,,0.00,LWC V2.00 B2112,2013-01-06 16:06:00,
2013-01-06 07:11:00,6.9,4.4,29.44,SW,225,0.0,0.0,89,0.00,,,0.00,LWC V2.00 B2112,2013-01-06 16:11:00,
2013-01-06 07:16:00,7.1,4.6,29.44,SW,226,0.0,0.0,89,0.00,,,0.00,LWC V2.00 B2112,2013-01-06 16:16:00,
2013-01-06 07:21:00,7.2,4.7,29.44,SW,226,0.0,0.0,89,0.00,,,0.00,LWC V2.00 B2112,2013-01-06 16:21:00,
2013-01-06 07:26:00,7.3,4.8,29.43,SW,225,0.0,0.0,89,0.00,,,0.00,LWC V2.00 B2112,2013-01-06 16:26:00,
2013-01-06 07:31:00,7.4,4.9,29.43,SW,226,0.0,0.0,89,0.00,,,0.00,LWC V2.00 B2112,2013-01-06 16:31:00,
2013-01-06 07:36:00,7.6,5.1,29.43,SW,226,0.0,0.0,89,0.00,,,0.00,LWC V2.00 B2112,2013-01-06 16:36:00,
2013-01-06 07:41:00,7.7,5.1,29.43,SW,226,0.0,0.0,89,0.00,,,0.00,LWC V2.00 B2112,2013-01-06 16:41:00,
2013-01-06 07:46:00,7.9,5.3,29.43,SW,225,0.0,0.0,89,0.00,,,0.00,LWC V2.00 B2112,2013-01-06 16:46:00,
2013-01-06 07:51:00,8.0,5.4,29.43,SW,226,0.0,0.0,89,0.00,,,0.00,LWC V2.00 B2112,2013-01-06 16:51:00,
2013-01-06 07:56:00,8.2,5.6,29.43,SW,226,0.0,0.0,89,0.00,,,0.00,LWC V2.00 B2112,2013-01-06 16:56:00,
2013-01-06 08:01:00,8.6,6.0,29.43,SW,225,0.0,0.0,89,0.00,,,0.00,LWC V2.00 B2112,2013-01-06 17:01:00,
2013-01-06 08:06:00,9.0,6.4,29.43,SW,226,0.0,0.0,89,0.00,,,0.00,LWC V2.00 B2112,2013-01-06 17:06:00,
2013-01-06 08:11:00,9.2,6.6,29.43,SW,226,0.0,0.0,89,0.00,,,0.00,LWC V2.00 B2112,2013-01-06 17:11:00,
2013-01-06 08:16:00,9.5,6.9,29.44,SW,226,0.0,0.0,89,0.00,,,0.00,LWC V2.00 B2112,2013-01-06 17:16:00,
2013-01-06 08:21:00,9.9,7.3,29.44,SW,226,0.0,0.0,89,0.00,,,0.00,LWC V2.00 B2112,2013-01-06 17:21:00,
2013-01-06 08:26:00,9.9,7.3,29.44,SW,226,0.0,0.0,89,0.00,,,0.00,LWC V2.00 B2112,2013-01-06 17:26:00,
2013-01-06 08:31:00,9.9,7.3,29.44,SW,226,0.0,0.0,89,0.00,,,0.00,LWC V2.00 B2112,2013-01-06 17:31:00,
2013-01-06 08:36:00,9.9,7.3,29.43,SW,225,0.0,0.0,89,0.00,,,0.00,LWC V2.00 B2112,2013-01-06 17:36:00,
2013-01-06 08:41:00,9.9,7.3,29.43,SW,225,0.0,0.0,89,0.00,,,0.00,LWC V2.00 B2112,2013-01-06 17:41:00,
2013-01-06 08:46:00,9.9,7.3,29.44,SW,226,0.0,0.0,89,0.00,,,0.00,LWC V2.00 B2112,2013-01-06 17:46:00,
2013-01-06 08:51:00,9.9,7.3,29.43,SW,226,0.0,0.0,89,0.00,,,0.00,LWC V2.00 B2112,2013-01-06 17:51:00,
2013-01-06 08:56:00,9.8,7.2,29.43,SW,225,0.0,0.0,89,0.00,,,0.00,LWC V2.00 B2112,2013-01-06 17:56:00,
2013-01-06 09:01:00,9.6,7.0,29.43,SW,226,0.0,0.0,89,0.00,,,0.00,LWC V2.00 B2112,2013-01-06 18:01:00,
2013-01-06 09:06:00,9.5,6.9,29.44,SW,226,0.0,0.0,89,0.00,,,0.00,LWC V2.00 B2112,2013-01-06 18:06:00,
2013-01-06 09:11:00,9.3,6.7,29.44,SW,225,0.0,0.0,89,0.00,,,0.00,LWC V2.00 B2112,2013-01-06 18:11:00,
2013-01-06 09:16:00,9.1,6.5,29.43,SW,225,0.0,0.0,89,0.00,,,0.00,LWC V2.00 B2112,2013-01-06 18:16:00,
2013-01-06 09:21:00,9.0,6.4,29.43,SW,226,0.0,0.0,89,0.00,,,0.00,LWC V2.00 B2112,2013-01-06 18:21:00,
2013-01-06 09:26:00,8.9,6.3,29.43,SW,226,0.0,0.0,89,0.00,,,0.00,LWC V2.00 B2112,2013-01-06 18:26:00,
2013-01-06 09:31:00,8.7,6.1,29.43,SW,225,0.0,0.0,89,0.00,,,0.00,LWC V2.00 B2112,2013-01-06 18:31:00,
2013-01-06 09:36:00,8.7,6.1,29.43,SW,226,0.0,0.0,89,0.00,,,0.00,LWC V2.00 B2112,2013-01-06 18:36:00,
2013-01-06 09:41:00,8.4,5.8,29.43,SW,226,0.0,0.0,89,0.00,,,0.00,LWC V2.00 B2112,2013-01-06 18:41:00,
2013-01-06 09:46:00,8.0,5.4,29.43,SW,225,0.0,0.0,89,0.00,,,0.00,LWC V2.00 B2112,2013-01-06 18:46:00,
2013-01-06 09:51:00,7.6,5.1,29.43,SW,225,0.0,0.0,89,0.00,,,0.00,LWC V2.00 B2112,2013-01-06 18:51:00,
2013-01-06 09:56:00,7.4,4.9,29.43,SW,226,0.0,0.0,89,0.00,,,0.00,LWC V2.00 B2112,2013-01-06 18:56:00,
2013-01-06 10:01:00,7.3,4.8,29.43,SW,226,0.0,0.0,89,0.00,,,0.00,LWC V2.00 B2112,2013-01-06 19:01:00,
2013-01-06 10:06:00,7.1,4.6,29.43,SW,225,0.0,0.0,89,0.00,,,0.00,LWC V2.00 B2112,2013-01-06 19:06:00,
2013-01-06 10:11:00,7.1,4.6,29.43,SW,226,0.0,0.0,89,0.00,,,0.00,LWC V2.00 B2112,2013-01-06 19:11:00,
2013-01-06 10:16:00,7.2,4.7,29.42,SW,226,0.0,0.0,89,0.00,,,0.00,LWC V2.00 B2112,2013-01-06 19:16:00,
2013-01-06 10:21:00,7.0,4.5,29.42,SW,225,0.0,0.0,89,0.00,,,0.00,LWC V2.00 B2112,2013-01-06 19:21:00,
2013-01-06 10:26:00,6.6,4.1,29.43,SW,225,0.0,0.0,89,0.00,,,0.00,LWC V2.00 B2112,2013-01-06 19:26:00,
2013-01-06 10:31:00,6.3,3.5,29.42,SW,226,0.0,0.0,88,0.00,,,0.00,LWC V2.00 B2112,2013-01-06 19:31:00,
2013-01-06 10:36:00,6.1,3.6,29.42,SW,226,0.0,0.0,89,0.00,,,0.00,LWC V2.00 B2112,2013-01-06 19:36:00,
2013-01-06 10:41:00,5.8,3.0,29.42,SW,225,0.0,0.0,88,0.00,,,0.00,LWC V2.00 B2112,2013-01-06 19:41:00,
2013-01-06 10:46:00,5.7,2.9,29.42,SW,226,0.0,0.0,88,0.00,,,0.00,LWC V2.00 B2112,2013-01-06 19:46:00,
2013-01-06 10:51:00,5.7,2.9,29.42,SW,226,0.0,0.0,88,0.00,,,0.00,LWC V2.00 B2112,2013-01-06 19:51:00,
2013-01-06 10:56:00,5.5,2.7,29.42,SW,226,0.0,0.0,88,0.00,,,0.00,LWC V2.00 B2112,2013-01-06 19:56:00,
2013-01-06 11:01:00,5.3,2.5,29.42,SW,225,0.0,0.0,88,0.00,,,0.00,LWC V2.00 B2112,2013-01-06 20:01:00,
2013-01-06 11:06:00,5.1,2.3,29.42,SW,225,0.0,0.0,88,0.00,,,0.00,LWC V2.00 B2112,2013-01-06 20:06:00,
2013-01-06 11:11:00,5.1,2.3,29.42,SW,226,0.0,0.0,88,0.00,,,0.00,LWC V2.00 B2112,2013-01-06 20:11:00,
2013-01-06 11:16:00,5.1,2.3,29.42,SW,226,0.0,0.0,88,0.00,,,0.00,LWC V2.00 B2112,2013-01-06 20:16:00,
2013-01-06 11:21:00,5.0,2.2,29.41,SW,225,0.0,0.0,88,0.00,,,0.00,LWC V2.00 B2112,2013-01-06 20:21:00,
2013-01-06 11:26:00,4.7,1.9,29.42,SW,226,0.0,0.0,88,0.00,,,0.00,LWC V2.00 B2112,2013-01-06 20:26:00,
2013-01-06 11:31:00,4.6,1.8,29.42,SW,226,0.0,0.0,88,0.00,,,0.00,LWC V2.00 B2112,2013-01-06 20:31:00,
2013-01-06 11:33:00,4.5,1.7,29.42,SW,226,0.0,0.0,88,0.00,,,0.00,LWC V2.00 B2112,2013-01-06 20:33:00,
2013-01-06 11:38:00,4.5,1.7,29.41,SW,225,0.0,0.0,88,0.00,,,0.00,LWC V2.00 B2112,2013-01-06 20:38:00,
2013-01-06 11:43:00,4.3,1.5,29.41,SW,226,0.0,0.0,88,0.00,,,0.00,LWC V2.00 B2112,2013-01-06 20:43:00,
2013-01-06 11:48:00,4.2,1.5,29.41,SW,226,0.0,0.0,88,0.00,,,0.00,LWC V2.00 B2112,2013-01-06 20:48:00,
2013-01-06 11:53:00,4.1,1.4,29.41,SW,226,0.0,0.0,88,0.00,,,0.00,LWC V2.00 B2112,2013-01-06 20:53:00,
2013-01-06 11:58:00,4.1,1.4,29.41,SW,225,0.0,0.0,88,0.00,,,0.00,LWC V2.00 B2112,2013-01-06 20:58:00,
2013-01-06 12:03:00,4.0,1.3,29.41,SW,226,0.0,0.0,88,0.00,,,0.00,LWC V2.00 B2112,2013-01-06 21:03:00,
2013-01-06 12:08:00,4.1,1.4,29.41,SW,225,0.0,0.0,88,0.00,,,0.00,LWC V2.00 B2112,2013-01-06 21:08:00,
2013-01-06 12:13:00,4.2,1.5,29.40,SW,225,0.0,0.0,88,0.00,,,0.00,LWC V2.00 B2112,2013-01-06 21:13:00,
2013-01-06 12:18:00,4.2,1.5,29.40,SW,226,0.0,0.0,88,0.00,,,0.00,LWC V2.00 B2112,2013-01-06 21:18:00,
2013-01-06 12:23:00,4.2,1.5,29.40,SW,226,0.0,0.0,88,0.00,,,0.00,LWC V2.00 B2112,2013-01-06 21:23:00,
2013-01-06 12:28:00,4.2,1.5,29.40,SW,226,0.0,0.0,88,0.00,,,0.00,LWC V2.00 B2112,2013-01-06 21:28:00,
2013-01-06 12:33:00,4.1,1.4,29.40,SW,226,0.0,0.0,88,0.00,,,0.00,LWC V2.00 B2112,2013-01-06 21:33:00,
2013-01-06 12:38:00,4.1,1.4,29.40,SW,226,0.0,0.0,88,0.00,,,0.00,LWC V2.00 B2112,2013-01-06 21:38:00,
2013-01-06 12:43:00,4.1,1.4,29.40,SW,225,0.0,0.0,88,0.00,,,0.00,LWC V2.00 B2112,2013-01-06 21:43:00,
2013-01-06 12:48:00,4.2,1.5,29.40,SW,225,0.0,0.0,88,0.00,,,0.00,LWC V2.00 B2112,2013-01-06 21:48:00,
2013-01-06 12:53:00,4.2,1.5,29.40,SW,226,0.0,0.0,88,0.00,,,0.00,LWC V2.00 B2112,2013-01-06 21:53:00,
2013-01-06 12:58:00,4.1,1.4,29.40,SW,226,0.0,0.0,88,0.00,,,0.00,LWC V2.00 B2112,2013-01-06 21:58:00,
2013-01-06 13:03:00,4.1,1.4,29.40,SW,226,0.0,0.0,88,0.00,,,0.00,LWC V2.00 B2112,2013-01-06 22:03:00,
2013-01-06 13:08:00,4.1,1.4,29.40,SW,226,0.0,0.0,88,0.00,,,0.00,LWC V2.00 B2112,2013-01-06 22:08:00,
2013-01-06 13:13:00,4.2,1.5,29.40,SW,226,0.0,0.0,88,0.00,,,0.00,LWC V2.00 B2112,2013-01-06 22:13:00,
2013-01-06 13:18:00,4.3,1.5,29.40,SW,225,0.0,0.0,88,0.00,,,0.00,LWC V2.00 B2112,2013-01-06 22:18:00,
2013-01-06 13:23:00,4.2,1.5,29.40,SW,225,0.0,0.0,88,0.00,,,0.00,LWC V2.00 B2112,2013-01-06 22:23:00,
2013-01-06 13:28:00,4.3,1.5,29.40,SW,226,0.0,0.0,88,0.00,,,0.00,LWC V2.00 B2112,2013-01-06 22:28:00,
2013-01-06 13:33:00,4.3,1.5,29.40,SW,226,0.0,0.0,88,0.00,,,0.00,LWC V2.00 B2112,2013-01-06 22:33:00,
2013-01-06 13:38:00,4.4,1.6,29.39,SW,225,0.0,0.0,88,0.00,,,0.00,LWC V2.00 B2112,2013-01-06 22:38:00,
2013-01-06 13:43:00,4.3,1.5,29.39,SW,226,0.0,0.0,88,0.00,,,0.00,LWC V2.00 B2112,2013-01-06 22:43:00,
2013-01-06 13:48:00,4.4,1.6,29.39,SW,226,0.0,0.0,88,0.00,,,0.00,LWC V2.00 B2112,2013-01-06 22:48:00,
2013-01-06 13:53:00,4.4,1.6,29.39,SW,225,0.0,0.0,88,0.00,,,0.00,LWC V2.00 B2112,2013-01-06 22:53:00,
2013-01-06 13:58:00,4.4,1.6,29.39,SW,225,0.0,0.0,88,0.00,,,0.00,LWC V2.00 B2112,2013-01-06 22:58:00,
2013-01-06 14:03:00,4.5,1.7,29.39,SW,226,0.0,0.0,88,0.00,,,0.00,LWC V2.00 B2112,2013-01-06 23:03:00,
2013-01-06 14:08:00,4.5,1.7,29.39,SW,226,0.0,0.0,88,0.00,,,0.00,LWC V2.00 B2112,2013-01-06 23:08:00,
2013-01-06 14:13:00,4.5,1.7,29.39,SW,225,0.0,0.0,88,0.00,,,0.00,LWC V2.00 B2112,2013-01-06 23:13:00,
2013-01-06 14:16:00,4.5,1.7,29.39,SW,226,0.0,0.0,88,0.00,,,0.00,LWC V2.00 B2112,2013-01-06 23:16:00,
2013-01-06 14:21:00,4.6,1.8,29.39,SW,226,0.0,0.0,88,0.00,,,0.00,LWC V2.00 B2112,2013-01-06 23:21:00,
2013-01-06 14:26:00,4.6,1.8,29.39,SW,226,0.0,0.0,88,0.00,,,0.00,LWC V2.00 B2112,2013-01-06 23:26:00,
2013-01-06 14:31:00,4.7,1.9,29.38,SW,225,0.0,0.0,88,0.00,,,0.00,LWC V2.00 B2112,2013-01-06 23:31:00,
2013-01-06 14:36:00,4.8,2.0,29.39,SW,226,0.0,0.0,88,0.00,,,0.00,LWC V2.00 B2112,2013-01-06 23:36:00,
2013-01-06 14:41:00,4.8,2.0,29.39,SW,226,0.0,0.0,88,0.00,,,0.00,LWC V2.00 B2112,2013-01-06 23:41:00,
2013-01-06 14:46:00,4.9,2.1,29.38,SW,225,0.0,0.0,88,0.00,,,0.00,LWC V2.00 B2112,2013-01-06 23:46:00,
2013-01-06 14:51:00,5.1,2.3,29.38,SW,226,0.0,0.0,88,0.00,,,0.00,LWC V2.00 B2112,2013-01-06 23:51:00,
2013-01-06 14:56:00,5.2,2.4,29.39,SW,226,0.0,0.0,88,0.00,,,0.00,LWC V2.00 B2112,2013-01-06 23:56:00,
2013-01-06 15:01:00,5.3,2.5,29.38,SW,226,0.0,0.0,88,0.00,,,0.00,LWC V2.00 B2112,2013-01-07 00:01:00,
2013-01-06 15:06:00,5.3,2.5,29.38,SW,226,0.0,0.0,88,0.00,,,0.00,LWC V2.00 B2112,2013-01-07 00:06:00,
2013-01-06 15:11:00,5.3,2.5,29.38,SW,226,0.0,0.0,88,0.00,,,0.00,LWC V2.00 B2112,2013-01-07 00:11:00,
2013-01-06 15:16:00,5.3,2.5,29.38,SW,225,0.0,0.0,88,0.00,,,0.00,LWC V2.00 B2112,2013-01-07 00:16:00,
2013-01-06 15:21:00,5.2,2.4,29.38,SW,225,0.0,0.0,88,0.00,,,0.00,LWC V2.00 B2112,2013-01-07 00:21:00,
2013-01-06 15:26:00,5.1,2.3,29.38,SW,226,0.0,0.0,88,0.00,,,0.00,LWC V2.00 B2112,2013-01-07 00:26:00,
2013-01-06 15:31:00,5.1,2.3,29.38,SW,226,0.0,0.0,88,0.00,,,0.00,LWC V2.00 B2112,2013-01-07 00:31:00,
2013-01-06 15:36:00,5.2,2.4,29.37,SW,225,0.0,0.0,88,0.00,,,0.00,LWC V2.00 B2112,2013-01-07 00:36:00,
2013-01-06 15:41:00,5.3,2.5,29.37,SW,226,0.0,0.0,88,0.00,,,0.00,LWC V2.00 B2112,2013-01-07 00:41:00,
2013-01-06 15:46:00,5.3,2.5,29.37,SW,226,0.0,0.0,88,0.00,,,0.00,LWC V2.00 B2112,2013-01-07 00:46:00,
2013-01-06 15:51:00,5.2,2.4,29.37,SW,226,0.0,0.0,88,0.00,,,0.00,LWC V2.00 B2112,2013-01-07 00:51:00,
2013-01-06 15:56:00,5.1,2.3,29.37,SW,225,0.0,0.0,88,0.00,,,0.00,LWC V2.00 B2112,2013-01-07 00:56:00,
2013-01-06 16:01:00,4.9,2.1,29.37,SW,225,0.0,0.0,88,0.00,,,0.00,LWC V2.00 B2112,2013-01-07 01:01:00,
2013-01-06 16:06:00,4.8,2.0,29.36,SW,226,0.0,0.0,88,0.00,,,0.00,LWC V2.00 B2112,2013-01-07 01:06:00,
2013-01-06 16:11:00,4.6,1.8,29.36,SW,226,0.0,0.0,88,0.00,,,0.00,LWC V2.00 B2112,2013-01-07 01:11:00,
2013-01-06 16:16:00,4.5,1.7,29.36,SW,225,0.0,0.0,88,0.00,,,0.00,LWC V2.00 B2112,2013-01-07 01:16:00,
2013-01-06 16:21:00,4.3,1.5,29.36,SW,226,0.0,0.0,88,0.00,,,0.00,LWC V2.00 B2112,2013-01-07 01:21:00,
2013-01-06 16:26:00,4.1,1.4,29.36,SW,226,0.0,0.0,88,0.00,,,0.00,LWC V2.00 B2112,2013-01-07 01:26:00,
2013-01-06 16:31:00,4.0,1.3,29.36,SW,226,0.0,0.0,88,0.00,,,0.00,LWC V2.00 B2112,2013-01-07 01:31:00,
2013-01-06 16:36:00,3.9,1.2,29.36,SW,225,0.0,0.0,88,0.00,,,0.00,LWC V2.00 B2112,2013-01-07 01:36:00,
2013-01-06 16:41:00,3.7,1.0,29.36,SW,226,0.0,0.0,88,0.00,,,0.00,LWC V2.00 B2112,2013-01-07 01:41:00,
2013-01-06 16:46:00,3.6,0.9,29.36,SW,226,0.0,0.0,88,0.00,,,0.00,LWC V2.00 B2112,2013-01-07 01:46:00,
2013-01-06 16:51:00,3.4,0.7,29.36,SW,226,0.0,0.0,88,0.00,,,0.00,LWC V2.00 B2112,2013-01-07 01:51:00,
2013-01-06 16:56:00,3.2,0.5,29.36,SW,226,0.0,0.0,88,0.00,,,0.00,LWC V2.00 B2112,2013-01-07 01:56:00,
2013-01-06 17:01:00,3.1,0.4,29.36,SW,226,0.0,0.0,88,0.00,,,0.00,LWC V2.00 B2112,2013-01-07 02:01:00,
2013-01-06 17:06:00,3.0,0.3,29.35,SW,225,0.0,0.0,88,0.00,,,0.00,LWC V2.00 B2112,2013-01-07 02:06:00,
2013-01-06 17:11:00,3.0,0.3,29.35,SW,225,0.0,0.0,88,0.00,,,0.00,LWC V2.00 B2112,2013-01-07 02:11:00,
2013-01-06 17:16:00,2.9,0.2,29.35,SW,226,0.0,0.0,88,0.00,,,0.00,LWC V2.00 B2112,2013-01-07 02:16:00,
2013-01-06 17:21:00,2.9,0.2,29.35,SW,226,0.0,0.0,88,0.00,,,0.00,LWC V2.00 B2112,2013-01-07 02:21:00,
2013-01-06 17:26:00,2.9,0.2,29.35,SW,226,0.0,0.0,88,0.00,,,0.00,LWC V2.00 B2112,2013-01-07 02:26:00,
2013-01-06 17:31:00,2.9,0.2,29.35,SW,226,0.0,0.0,88,0.00,,,0.00,LWC V2.00 B2112,2013-01-07 02:31:00,
2013-01-06 17:36:00,2.9,0.2,29.35,SW,226,0.0,0.0,88,0.00,,,0.00,LWC V2.00 B2112,2013-01-07 02:36:00,
2013-01-06 17:41:00,3.0,0.3,29.35,SW,225,0.0,0.0,88,0.00,,,0.00,LWC V2.00 B2112,2013-01-07 02:41:00,
2013-01-06 17:46:00,3.1,0.4,29.35,SW,225,0.0,0.0,88,0.00,,,0.00,LWC V2.00 B2112,2013-01-07 02:46:00,
2013-01-06 17:51:00,3.0,0.3,29.35,SW,226,0.0,0.0,88,0.00,,,0.00,LWC V2.00 B2112,2013-01-07 02:51:00,
2013-01-06 17:56:00,2.8,0.1,29.35,SW,226,0.0,0.0,88,0.00,,,0.00,LWC V2.00 B2112,2013-01-07 02:56:00,
2013-01-06 18:01:00,2.8,0.1,29.34,SW,226,0.0,0.0,88,0.00,,,0.00,LWC V2.00 B2112,2013-01-07 03:01:00,
2013-01-06 18:06:00,2.7,0.0,29.34,SW,226,0.0,0.0,88,0.00,,,0.00,LWC V2.00 B2112,2013-01-07 03:06:00,
2013-01-06 18:11:00,2.7,0.0,29.34,SW,226,0.0,0.0,88,0.00,,,0.00,LWC V2.00 B2112,2013-01-07 03:11:00,
2013-01-06 18:16:00,2.6,-0.1,29.34,SW,225,0.0,0.0,88,0.00,,,0.00,LWC V2.00 B2112,2013-01-07 03:16:00,
2013-01-06 18:21:00,2.4,-0.3,29.34,SW,225,0.0,0.0,88,0.00,,,0.00,LWC V2.00 B2112,2013-01-07 03:21:00,
2013-01-06 18:26:00,2.2,-0.5,29.34,SW,226,0.0,0.0,88,0.00,,,0.00,LWC V2.00 B2112,2013-01-07 03:26:00,
2013-01-06 18:31:00,2.1,-0.6,29.34,SW,226,0.0,0.0,88,0.00,,,0.00,LWC V2.00 B2112,2013-01-07 03:31:00,
2013-01-06 18:36:00,2.1,-0.6,29.33,SW,225,0.0,0.0,88,0.00,,,0.00,LWC V2.00 B2112,2013-01-07 03:36:00,
2013-01-06 18:41:00,2.0,-0.7,29.33,SW,226,0.0,0.0,88,0.00,,,0.00,LWC V2.00 B2112,2013-01-07 03:41:00,
2013-01-06 18:46:00,1.8,-0.9,29.33,SW,226,0.0,0.0,88,0.00,,,0.00,LWC V2.00 B2112,2013-01-07 03:46:00,
2013-01-06 18:51:00,1.5,-1.5,29.33,SW,225,0.0,0.0,87,0.00,,,0.00,LWC V2.00 B2112,2013-01-07 03:51:00,
2013-01-06 18:56:00,1.4,-1.6,29.33,SW,225,0.0,0.0,87,0.00,,,0.00,LWC V2.00 B2112,2013-01-07 03:56:00,
2013-01-06 19:01:00,1.6,-1.1,29.33,SW,226,0.0,0.0,88,0.00,,,0.00,LWC V2.00 B2112,2013-01-07 04:01:00,
2013-01-06 19:06:00,1.3,-1.4,29.33,SW,226,0.0,0.0,88,0.00,,,0.00,LWC V2.00 B2112,2013-01-07 04:06:00,
2013-01-06 19:11:00,1.0,-1.9,29.33,SW,225,0.0,0.0,87,0.00,,,0.00,LWC V2.00 B2112,2013-01-07 04:11:00,
2013-01-06 19:16:00,0.7,-2.2,29.33,SW,226,0.0,0.0,87,0.00,,,0.00,LWC V2.00 B2112,2013-01-07 04:16:00,
2013-01-06 19:21:00,0.5,-2.4,29.33,SW,226,0.0,0.0,87,0.00,,,0.00,LWC V2.00 B2112,2013-01-07 04:21:00,
2013-01-06 19:26:00,0.3,-2.6,29.33,SW,225,0.0,0.0,87,0.00,,,0.00,LWC V2.00 B2112,2013-01-07 04:26:00,
2013-01-06 19:31:00,0.1,-2.8,29.33,SW,226,0.0,0.0,87,0.00,,,0.00,LWC V2.00 B2112,2013-01-07 04:31:00,
2013-01-06 19:36:00,0.0,-2.9,29.33,SW,226,0.0,0.0,87,0.00,,,0.00,LWC V2.00 B2112,2013-01-07 04:36:00,
2013-01-06 19:41:00,0.0,-2.9,29.33,SW,226,0.0,0.0,87,0.00,,,0.00,LWC V2.00 B2112,2013-01-07 04:41:00,
2013-01-06 19:46:00,-0.2,-3.1,29.32,SW,226,0.0,0.0,87,0.00,,,0.00,LWC V2.00 B2112,2013-01-07 04:46:00,
2013-01-06 19:51:00,-0.3,-3.2,29.32,SW,226,0.0,0.0,87,0.00,,,0.00,LWC V2.00 B2112,2013-01-07 04:51:00,
2013-01-06 19:56:00,-0.4,-3.3,29.32,SW,226,0.0,0.0,87,0.00,,,0.00,LWC V2.00 B2112,2013-01-07 04:56:00,
2013-01-06 20:00:00,-0.5,-3.4,29.32,SW,226,0.0,0.0,87,0.00,,,0.00,LWC V2.00 B2112,2013-01-07 05:00:00,
2013-01-06 20:03:00,-0.5,-3.4,29.32,SW,226,0.0,0.0,87,0.00,,,0.00,LWC V2.00 B2112,2013-01-07 05:03:00,
2013-01-06 20:08:00,-0.5,-3.4,29.32,SW,226,0.0,0.0,87,0.00,,,0.00,LWC V2.00 B2112,2013-01-07 05:08:00,
2013-01-06 20:13:00,-0.4,-3.3,29.32,SW,226,0.0,0.0,87,0.00,,,0.00,LWC V2.00 B2112,2013-01-07 05:13:00,
2013-01-06 20:18:00,-0.5,-3.4,29.31,SW,225,0.0,0.0,87,0.00,,,0.00,LWC V2.00 B2112,2013-01-07 05:18:00,
2013-01-06 20:23:00,-0.5,-3.4,29.31,SW,225,0.0,0.0,87,0.00,,,0.00,LWC V2.00 B2112,2013-01-07 05:23:00,
2013-01-06 20:28:00,-0.5,-3.4,29.31,SW,225,0.0,0.0,87,0.00,,,0.00,LWC V2.00 B2112,2013-01-07 05:28:00,
2013-01-06 20:33:00,-0.5,-3.4,29.31,SW,226,0.0,0.0,87,0.00,,,0.00,LWC V2.00 B2112,2013-01-07 05:33:00,
2013-01-06 20:38:00,-0.5,-3.4,29.30,SW,226,0.0,0.0,87,0.00,,,0.00,LWC V2.00 B2112,2013-01-07 05:38:00,
2013-01-06 20:43:00,-0.5,-3.4,29.31,SW,225,0.0,0.0,87,0.00,,,0.00,LWC V2.00 B2112,2013-01-07 05:43:00,
2013-01-06 20:48:00,-0.5,-3.4,29.31,SW,226,0.0,0.0,87,0.00,,,0.00,LWC V2.00 B2112,2013-01-07 05:48:00,
2013-01-06 20:53:00,-0.7,-3.6,29.31,SW,225,0.0,0.0,87,0.00,,,0.00,LWC V2.00 B2112,2013-01-07 05:53:00,
2013-01-06 20:58:00,-0.8,-3.7,29.31,SW,225,0.0,0.0,87,0.00,,,0.00,LWC V2.00 B2112,2013-01-07 05:58:00,
2013-01-06 21:03:00,-0.8,-3.7,29.31,SW,226,0.0,0.0,87,0.00,,,0.00,LWC V2.00 B2112,2013-01-07 06:03:00,
2013-01-06 21:08:00,-0.9,-3.8,29.31,SW,226,0.0,0.0,87,0.00,,,0.00,LWC V2.00 B2112,2013-01-07 06:08:00,
2013-01-06 21:13:00,-1.0,-3.9,29.31,SW,226,0.0,0.0,87,0.00,,,0.00,LWC V2.00 B2112,2013-01-07 06:13:00,
2013-01-06 21:18:00,-1.2,-4.1,29.31,SW,225,0.0,0.0,87,0.00,,,0.00,LWC V2.00 B2112,2013-01-07 06:18:00,
2013-01-06 21:23:00,-1.3,-4.2,29.30,SW,226,0.0,0.0,87,0.00,,,0.00,LWC V2.00 B2112,2013-01-07 06:23:00,
2013-01-06 21:28:00,-1.6,-4.5,29.30,SW,226,0.0,0.0,87,0.00,,,0.00,LWC V2.00 B2112,2013-01-07 06:28:00,
2013-01-06 21:33:00,-1.7,-4.6,29.31,SW,226,0.0,0.0,87,0.00,,,0.00,LWC V2.00 B2112,2013-01-07 06:33:00,
2013-01-06 21:38:00,-1.8,-4.7,29.30,SW,225,0.0,0.0,87,0.00,,,0.00,LWC V2.00 B2112,2013-01-07 06:38:00,
2013-01-06 21:43:00,-1.7,-4.6,29.30,SW,225,0.0,0.0,87,0.00,,,0.00,LWC V2.00 B2112,2013-01-07 06:43:00,
2013-01-06 21:48:00,-1.6,-4.5,29.30,SW,226,0.0,0.0,87,0.00,,,0.00,LWC V2.00 B2112,2013-01-07 06:48:00,
2013-01-06 21:53:00,-1.6,-4.5,29.30,SW,225,0.0,0.0,87,0.00,,,0.00,LWC V2.00 B2112,2013-01-07 06:53:00,
2013-01-06 21:58:00,-1.8,-4.7,29.30,SW,225,0.0,0.0,87,0.00,,,0.00,LWC V2.00 B2112,2013-01-07 06:58:00,
2013-01-06 22:03:00,-2.1,-5.2,29.30,SW,226,0.0,0.0,86,0.00,,,0.00,LWC V2.00 B2112,2013-01-07 07:03:00,
2013-01-06 22:08:00,-2.2,-5.3,29.30,SW,226,0.0,0.0,86,0.00,,,0.00,LWC V2.00 B2112,2013-01-07 07:08:00,
2013-01-06 22:13:00,-2.2,-5.3,29.30,SW,226,0.0,0.0,86,0.00,,,0.00,LWC V2.00 B2112,2013-01-07 07:13:00,
2013-01-06 22:18:00,-2.3,-5.2,29.30,SW,225,0.0,0.0,87,0.00,,,0.00,LWC V2.00 B2112,2013-01-07 07:18:00,
2013-01-06 22:23:00,-2.4,-5.5,29.30,SW,226,0.0,0.0,86,0.00,,,0.00,LWC V2.00 B2112,2013-01-07 07:23:00,
2013-01-06 22:28:00,-2.5,-5.6,29.30,SW,225,0.0,0.0,86,0.00,,,0.00,LWC V2.00 B2112,2013-01-07 07:28:00,
2013-01-06 22:33:00,-2.6,-5.7,29.29,SW,225,0.0,0.0,86,0.00,,,0.00,LWC V2.00 B2112,2013-01-07 07:33:00,
2013-01-06 22:38:00,-2.9,-6.0,29.29,SW,226,0.0,0.0,86,0.00,,,0.00,LWC V2.00 B2112,2013-01-07 07:38:00,
2013-01-06 22:43:00,-3.1,-6.2,29.29,SW,226,0.0,0.0,86,0.00,,,0.00,LWC V2.00 B2112,2013-01-07 07:43:00,
2013-01-06 22:48:00,-3.3,-6.4,29.29,SW,226,0.0,0.0,86,0.00,,,0.00,LWC V2.00 B2112,2013-01-07 07:48:00,
2013-01-06 22:53:00,-3.0,-6.1,29.29,SW,226,0.0,0.0,86,0.00,,,0.00,LWC V2.00 B2112,2013-01-07 07:53:00,
2013-01-06 22:58:00,-2.8,-5.9,29.28,SW,226,0.0,0.0,86,0.00,,,0.00,LWC V2.00 B2112,2013-01-07 07:58:00,
2013-01-06 23:03:00,-3.0,-6.1,29.28,SW,225,0.0,0.0,86,0.00,,,0.00,LWC V2.00 B2112,2013-01-07 08:03:00,
2013-01-06 23:08:00,-3.1,-6.2,29.28,SW,225,0.0,0.0,86,0.00,,,0.00,LWC V2.00 B2112,2013-01-07 08:08:00,
2013-01-06 23:13:00,-3.2,-6.3,29.28,SW,226,0.0,0.0,86,0.00,,,0.00,LWC V2.00 B2112,2013-01-07 08:13:00,
2013-01-06 23:18:00,-3.2,-6.3,29.28,SW,226,0.0,0.0,86,0.00,,,0.00,LWC V2.00 B2112,2013-01-07 08:18:00,
2013-01-06 23:23:00,-3.3,-6.4,29.28,SW,225,0.0,0.0,86,0.00,,,0.00,LWC V2.00 B2112,2013-01-07 08:23:00,
2013-01-06 23:28:00,-3.3,-6.4,29.28,SW,226,0.0,0.0,86,0.00,,,0.00,LWC V2.00 B2112,2013-01-07 08:28:00,
2013-01-06 23:33:00,-3.3,-6.4,29.28,SW,226,0.0,0.0,86,0.00,,,0.00,LWC V2.00 B2112,2013-01-07 08:33:00,
2013-01-06 23:38:00,-3.4,-6.5,29.28,SW,225,0.0,0.0,86,0.00,,,0.00,LWC V2.00 B2112,2013-01-07 08:38:00,
2013-01-06 23:43:00,-3.5,-6.6,29.28,SW,225,0.0,0.0,86,0.00,,,0.00,LWC V2.00 B2112,2013-01-07 08:43:00,
2013-01-06 23:48:00,-3.9,-7.0,29.28,SW,226,0.0,0.0,86,0.00,,,0.00,LWC V2.00 B2112,2013-01-07 08:48:00,
2013-01-06 23:53:00,-4.2,-7.3,29.27,SW,226,0.0,0.0,86,0.00,,,0.00,LWC V2.00 B2112,2013-01-07 08:53:00,
2013-01-06 23:58:00,-4.4,-7.5,29.27,SW,226,0.0,0.0,86,0.00,,,0.00,LWC V2.00 B2112,2013-01-07 08:58:00,